AirNav   Textron
 
 491 users online  

52XS Clear Lake Regional Medical Center Heliport
Webster, Texas, USA

GOING TO WEBSTER?


FAA INFORMATION EFFECTIVE 07 DECEMBER 2017

Location

FAA Identifier: 52XS
Lat/Long: 29-32-29.1700N / 095-07-43.0100W
29-32.486167N / 095-07.716833W
29.5414361 / -95.1286139
(estimated)
Elevation: 51 ft. / 16 m (estimated)
Variation: 04E (2000)
Time zone: UTC -6 (UTC -5 during Daylight Saving Time)
Zip code: 77598

Heliport Operations

Heliport use: Private use, MEDICAL.
Activation date: 06/2002
Control tower: no
ARTCC: HOUSTON CENTER
FSS: MONTGOMERY COUNTY FLIGHT SERVICE STATION
Attendance: UNATNDD
Segmented circle: no

Heliport Communications

WX ASOS at LVJ (6 nm W): 118.525 (281-992-1853)
WX ASOS at HOU (10 nm NW): PHONE 713-847-1462
WX AWOS-3 at AXH (18 nm W): 123.625 (281-431-6572)

Nearby radio navigation aids

VOR radial/distance  VOR name  Freq  Var
HUBr127/10.3HOBBY VOR/DME117.1005E
MHFr262/19.9TRINITY VOR/DME113.6007E
VUHr314/21.3SCHOLES VOR/DME113.0006E
IAHr151/27.4HUMBLE VORTAC116.6005E

 
NDB name  Hdg/Dist  Freq  Var  ID
SANJAC197/8.234705EJPA .--- .--. .-
GALVESTON295/23.120608EGLS --. .-.. ...
NIXIN166/27.532605EBVP -... ...- .--.

Heliport Services

Runway Information

Helipad H1

Dimensions: 60 x 60 ft. / 18 x 18 m
Surface: concrete
Latitude: 29-32.486167N
Longitude: 095-07.716833W
Elevation: 51.0 ft.
Traffic pattern: leftleft

Heliport Ownership and Management from official FAA records

Ownership: Privately-owned
Owner: HCA-CLEAR LAKE MEDICAL CENTER
500 MEDICAL CENTER BLVD
WEBSTER, TX 77598
Phone 281-338-3181
Manager: RICHARD UNGER
500 MEDICAL CENTER BLVD
WEBSTER, TX 77598
Phone 281-338-3765

Instrument Procedures

There are no published instrument procedures at 52XS.

Some nearby airports with instrument procedures:

KEFD - Ellington Airport (4 nm N)
KLVJ - Pearland Regional Airport (6 nm W)
T41 - La Porte Municipal Airport (8 nm NE)
KHOU - William P Hobby Airport (10 nm NW)
KHPY - Baytown Airport (17 nm NE)
KAXH - Houston Southwest Airport (18 nm W)
54T - RWJ Airpark (20 nm NE)
 
Loc | Ops | Rwys | IFR | FBO | Links
Com | Nav | Svcs | Stats | Notes


 
Area around 52XS (Clear Lake Regional Medical Center Heliport)
 
Road maps at: MapQuest Bing Google
 
Aerial photo
No photo
 
Sectional chart

 
Airport distance calculator
Flying to Clear Lake Regional Medical Center Heliport? Find the distance to fly.

From to 52XS

Sunrise and sunset
Times for 14-Dec-2017
 Local
(UTC-6)
 Zulu
(UTC)
Morning civil twilight06:4212:42
Sunrise07:0813:08
Sunset17:2223:22
Evening civil twilight17:4823:48

Current date and time
Zulu (UTC)  14-Dec-2017 06:02:34
Local (UTC-6)  14-Dec-2017 00:02:34
 
METAR
KEFD 
4nm NW 
140550Z 00000KT 10SM BKN250 10/03 A2999
KLVJ 
7nm W 
140553Z AUTO 00000KT 10SM CLR 07/05 A2999 RMK AO2 SLP155 T00720050 10100 20067 401440000 56007
KHOU 
10nm NW 
140553Z 00000KT 10SM BKN250 08/04 A2997 RMK AO2 SLP152 T00830039 10117 20078 401440017 58009
KAXH 
18nm W 
140555Z AUTO 00000KT 10SM CLR 07/05 A2998 RMK AO2 T00670048 10093 20050
TAF
KEFD 
4nm NW 
140400Z 1404/1510 VRB06KT 9999 FEW200 QNH2995INS BECMG 1502/1503 01009KT 9999 SCT050 QNH3004INS TX18/1421Z TN08/1412Z
KHOU 
10nm NW 
140520Z 1406/1506 19005KT P6SM BKN250 FM150000 35005KT P6SM SCT050 OVC120
NOTAMs
Click for the latest NOTAMs
NOTAMs are issued by the DoD/FAA and will open in a separate window not controlled by AirNav.

 

 
 

Would you like to see your business listed on this page?

 If your business provides an interesting product or service to pilots, flight crews, aircraft, or users of the Clear Lake Regional Medical Center Heliport, you should consider listing it here.  To start the listing process, click on the button below
 
Add a business
 

Other Pages about Clear Lake Regional Medical Center Heliport

Update a link
 
Copyright © AirNav, LLC. All rights reserved. Privacy Policy  Contact